Airfield :







YOU CAN JOIN US ON...

 
LOGIN :

Register | Disclaimer

   EN    FR    IT 

 









Legend :    VFR   Marginal VFR   IFR   Intensive IFR   Very Intensive IFR
Visi :
Ceiling :
>= 8 km
>= 3000ft
5 to 8 km
1000 to 3000 ft
1500m to 5 km
500 to 1000 ft
800 to 1500m
200 to 500 ft
< 800m
< 200 ft
Symbols :   Thunderstorms  Fog  Heavy snow  Heavy precipitations  Wind > 20 kt






- Airport Elevation : 48 ft
- IATA code : REK


BIRK - Reykjavik

CURRENT METAR :
  • 230400Z 22006KT 3000 BR OVC004 07/06 Q0989

EXPIRED METARs :
  • 230300Z 23006KT 3500 BR OVC005 07/06 Q0990
  • 230200Z 17005KT 3000 DZ BR OVC003 08/07 Q0990

TAF TAF BIRK
Valid from the 23 at 03:00 until the 24 at 03:00 UTC


230135Z 2303/2403 18012KT 9999 -RA FEW015 SCT025 BKN035 TX09/2315Z TN06/2306Z
PROB40
TEMPO 2303/2318 3500 DZRA BR BKN008 OVC015



MET'MAP, your aeronautical weather chart ! - Copyright ORBIFLY December 2007 - Disclaimer

ORBIFLY MET'MAP TEAM :

Programming & Development : Alexandra Zaïnal
Concept & original design : Baudouin d'Aumeries
Assistance for programming : Marc-Olivier Méhu
Technical & hardware support : Manuel Goepfert

Contact : metmap@orbifly.com




SOURCES & CREDITS :

   NOAA